Time,TemperatureF,DewpointF,PressureIn,WindDirection,WindDirectionDegrees,WindSpeedMPH,WindSpeedGustMPH,Humidity,HourlyPrecipIn,Conditions,Clouds,dailyrainin,SoftwareType,DateUTC
2013-09-08 00:02:00,75.8,65.7,29.48,SSE,158,0.9,1.3,71,0.00,,,0.00,WUHU216HW,2013-09-08 05:02:00,
2013-09-08 00:07:00,75.8,65.7,29.48,SSE,158,0.7,0.9,71,0.00,,,0.00,WUHU216HW,2013-09-08 05:07:00,
2013-09-08 00:12:00,75.8,65.7,29.48,SE,135,0.0,0.9,71,0.00,,,0.00,WUHU216HW,2013-09-08 05:12:00,
2013-09-08 00:17:00,75.8,65.7,29.48,SSE,158,0.0,0.7,71,0.00,,,0.00,WUHU216HW,2013-09-08 05:17:00,
2013-09-08 00:22:00,75.6,65.5,29.48,ESE,113,0.0,0.4,71,0.00,,,0.00,WUHU216HW,2013-09-08 05:22:00,
2013-09-08 00:27:00,75.6,66.3,29.48,ESE,113,0.4,0.9,73,0.00,,,0.00,WUHU216HW,2013-09-08 05:27:00,
2013-09-08 00:32:00,75.2,66.8,29.48,ENE,68,0.0,0.9,75,0.00,,,0.00,WUHU216HW,2013-09-08 05:32:00,
2013-09-08 00:37:00,74.9,66.4,29.47,SE,135,0.7,0.9,75,0.00,,,0.00,WUHU216HW,2013-09-08 05:37:00,
2013-09-08 00:42:00,74.7,66.2,29.48,East,90,0.9,0.9,75,0.00,,,0.00,WUHU216HW,2013-09-08 05:42:00,
2013-09-08 00:47:00,74.5,66.1,29.48,ESE,113,0.4,1.1,75,0.00,,,0.00,WUHU216HW,2013-09-08 05:47:00,
2013-09-08 00:52:00,74.5,67.7,29.48,ENE,68,0.4,1.1,79,0.00,,,0.00,WUHU216HW,2013-09-08 05:52:00,
2013-09-08 00:57:00,76.5,68.4,29.48,NNE,23,0.0,0.7,76,0.00,,,0.00,WUHU216HW,2013-09-08 05:57:00,
2013-09-08 01:02:00,76.9,67.6,29.48,ESE,113,0.4,0.9,73,0.00,,,0.00,WUHU216HW,2013-09-08 06:02:00,
2013-09-08 01:07:00,76.3,67.1,29.48,ESE,113,0.2,0.9,73,0.00,,,0.00,WUHU216HW,2013-09-08 06:07:00,
2013-09-08 01:12:00,75.6,66.7,29.48,East,90,0.0,1.8,74,0.00,,,0.00,WUHU216HW,2013-09-08 06:12:00,
2013-09-08 01:17:00,75.2,66.4,29.47,SE,135,0.4,1.8,74,0.00,,,0.00,WUHU216HW,2013-09-08 06:17:00,
2013-09-08 01:22:00,74.9,66.4,29.47,SE,135,0.0,1.1,75,0.00,,,0.00,WUHU216HW,2013-09-08 06:22:00,
2013-09-08 01:27:00,74.7,66.2,29.46,SSE,158,0.0,1.1,75,0.00,,,0.00,WUHU216HW,2013-09-08 06:27:00,
2013-09-08 01:32:00,74.5,66.1,29.47,SSE,158,1.1,1.8,75,0.00,,,0.00,WUHU216HW,2013-09-08 06:32:00,
2013-09-08 01:37:00,74.5,66.1,29.47,SSE,158,0.9,1.8,75,0.00,,,0.00,WUHU216HW,2013-09-08 06:37:00,
2013-09-08 01:42:00,74.5,65.7,29.47,SE,135,1.1,2.0,74,0.00,,,0.00,WUHU216HW,2013-09-08 06:42:00,
2013-09-08 01:47:00,74.5,65.7,29.47,SE,135,0.7,2.0,74,0.00,,,0.00,WUHU216HW,2013-09-08 06:47:00,
2013-09-08 01:52:00,74.7,65.5,29.47,SW,225,0.9,1.1,73,0.00,,,0.00,WUHU216HW,2013-09-08 06:52:00,
2013-09-08 01:57:00,74.7,65.9,29.47,SE,135,0.2,1.8,74,0.00,,,0.00,WUHU216HW,2013-09-08 06:57:00,
2013-09-08 02:02:00,74.9,66.4,29.47,ESE,113,0.4,1.8,75,0.00,,,0.00,WUHU216HW,2013-09-08 07:02:00,
2013-09-08 02:07:00,74.7,66.2,29.47,SE,135,0.9,0.9,75,0.00,,,0.00,WUHU216HW,2013-09-08 07:07:00,
2013-09-08 02:12:00,74.5,66.1,29.47,SSE,158,0.7,1.3,75,0.00,,,0.00,WUHU216HW,2013-09-08 07:12:00,
2013-09-08 02:17:00,74.5,66.1,29.47,SSE,158,1.1,1.3,75,0.00,,,0.00,WUHU216HW,2013-09-08 07:17:00,
2013-09-08 02:22:00,74.3,65.9,29.46,ESE,113,1.1,1.6,75,0.00,,,0.00,WUHU216HW,2013-09-08 07:22:00,
2013-09-08 02:27:00,74.2,66.9,29.46,ESE,113,0.4,1.6,78,0.00,,,0.00,WUHU216HW,2013-09-08 07:27:00,
2013-09-08 02:32:00,75.4,67.3,29.47,ESE,113,0.7,1.6,76,0.00,,,0.00,WUHU216HW,2013-09-08 07:32:00,
2013-09-08 02:37:00,75.8,66.9,29.47,SSW,203,0.0,0.9,74,0.00,,,0.00,WUHU216HW,2013-09-08 07:37:00,
2013-09-08 02:42:00,75.4,66.2,29.47,SSE,158,0.4,0.4,73,0.00,,,0.00,WUHU216HW,2013-09-08 07:42:00,
2013-09-08 02:47:00,75.1,66.3,29.46,ESE,113,0.2,0.7,74,0.00,,,0.00,WUHU216HW,2013-09-08 07:47:00,
2013-09-08 02:52:00,74.7,65.9,29.47,ESE,113,0.0,0.7,74,0.00,,,0.00,WUHU216HW,2013-09-08 07:52:00,
2013-09-08 02:57:00,74.3,65.9,29.47,ENE,68,0.0,0.4,75,0.00,,,0.00,WUHU216HW,2013-09-08 07:57:00,
2013-09-08 03:02:00,74.0,65.6,29.47,SE,135,0.4,0.4,75,0.00,,,0.00,WUHU216HW,2013-09-08 08:02:00,
2013-09-08 03:07:00,73.8,65.4,29.47,SE,135,0.0,0.4,75,0.00,,,0.00,WUHU216HW,2013-09-08 08:07:00,
2013-09-08 03:11:00,73.8,65.4,29.47,SE,135,0.0,0.0,75,0.00,,,0.00,WUHU216HW,2013-09-08 08:11:00,
2013-09-08 03:16:00,73.8,65.4,29.46,SE,135,0.0,0.0,75,0.00,,,0.00,WUHU216HW,2013-09-08 08:16:00,
2013-09-08 03:21:00,73.8,65.8,29.46,ESE,113,0.9,0.9,76,0.00,,,0.00,WUHU216HW,2013-09-08 08:21:00,
2013-09-08 03:26:00,73.6,66.0,29.46,East,90,0.9,1.1,77,0.00,,,0.00,WUHU216HW,2013-09-08 08:26:00,
2013-09-08 03:31:00,73.4,65.8,29.46,SE,135,0.0,1.1,77,0.00,,,0.00,WUHU216HW,2013-09-08 08:31:00,
2013-09-08 03:36:00,73.4,65.8,29.46,SE,135,0.0,0.7,77,0.00,,,0.00,WUHU216HW,2013-09-08 08:36:00,
2013-09-08 03:41:00,73.6,65.6,29.46,SSE,158,0.0,0.4,76,0.00,,,0.00,WUHU216HW,2013-09-08 08:41:00,
2013-09-08 03:46:00,73.6,66.0,29.46,ESE,113,0.0,0.9,77,0.00,,,0.00,WUHU216HW,2013-09-08 08:46:00,
2013-09-08 03:51:00,73.6,66.0,29.46,ESE,113,0.2,0.9,77,0.00,,,0.00,WUHU216HW,2013-09-08 08:51:00,
2013-09-08 03:56:00,73.4,66.3,29.47,East,90,1.1,1.8,78,0.00,,,0.00,WUHU216HW,2013-09-08 08:56:00,
2013-09-08 04:01:00,73.1,65.9,29.48,WSW,248,1.1,1.8,78,0.00,,,0.00,WUHU216HW,2013-09-08 09:01:00,
2013-09-08 04:06:00,73.1,65.9,29.48,ESE,113,0.2,1.1,78,0.00,,,0.00,WUHU216HW,2013-09-08 09:06:00,
2013-09-08 04:11:00,73.1,65.9,29.49,East,90,0.4,0.4,78,0.00,,,0.00,WUHU216HW,2013-09-08 09:11:00,
2013-09-08 04:16:00,73.1,66.3,29.48,NE,45,0.4,0.9,79,0.00,,,0.00,WUHU216HW,2013-09-08 09:16:00,
2013-09-08 04:21:00,73.1,65.9,29.49,NE,45,0.4,0.9,78,0.00,,,0.00,WUHU216HW,2013-09-08 09:21:00,
2013-09-08 04:26:00,73.1,65.9,29.49,East,90,0.0,0.4,78,0.00,,,0.00,WUHU216HW,2013-09-08 09:26:00,
2013-09-08 04:31:00,73.1,65.9,29.49,WNW,293,0.0,0.4,78,0.00,,,0.00,WUHU216HW,2013-09-08 09:31:00,
2013-09-08 04:36:00,73.1,65.9,29.49,ESE,113,1.1,1.1,78,0.00,,,0.00,WUHU216HW,2013-09-08 09:36:00,
2013-09-08 04:41:00,73.3,66.1,29.49,SE,135,0.0,1.1,78,0.00,,,0.00,WUHU216HW,2013-09-08 09:41:00,
2013-09-08 04:46:00,73.3,66.1,29.49,WSW,248,1.1,1.1,78,0.00,,,0.00,WUHU216HW,2013-09-08 09:46:00,
2013-09-08 04:51:00,73.4,66.3,29.48,WNW,293,0.4,1.8,78,0.00,,,0.00,WUHU216HW,2013-09-08 09:51:00,
2013-09-08 04:56:00,73.4,65.8,29.48,SSW,203,0.0,1.8,77,0.00,,,0.00,WUHU216HW,2013-09-08 09:56:00,
2013-09-08 05:01:00,73.4,65.8,29.48,ENE,68,0.7,0.9,77,0.00,,,0.00,WUHU216HW,2013-09-08 10:01:00,
2013-09-08 05:06:00,73.3,66.1,29.48,East,90,0.0,0.9,78,0.00,,,0.00,WUHU216HW,2013-09-08 10:06:00,
2013-09-08 05:11:00,73.1,65.9,29.48,East,90,0.0,0.9,78,0.00,,,0.00,WUHU216HW,2013-09-08 10:11:00,
2013-09-08 05:16:00,73.1,66.3,29.48,NE,45,0.0,0.7,79,0.00,,,0.00,WUHU216HW,2013-09-08 10:16:00,
2013-09-08 05:21:00,73.1,65.9,29.48,SSE,158,0.9,0.9,78,0.00,,,0.00,WUHU216HW,2013-09-08 10:21:00,
2013-09-08 05:26:00,72.9,65.7,29.48,ENE,68,0.9,1.3,78,0.00,,,0.00,WUHU216HW,2013-09-08 10:26:00,
2013-09-08 05:31:00,72.9,66.1,29.48,ENE,68,0.0,1.3,79,0.00,,,0.00,WUHU216HW,2013-09-08 10:31:00,
2013-09-08 05:36:00,72.9,66.1,29.49,ESE,113,0.7,0.7,79,0.00,,,0.00,WUHU216HW,2013-09-08 10:36:00,
2013-09-08 05:41:00,72.7,65.9,29.49,ENE,68,0.0,0.7,79,0.00,,,0.00,WUHU216HW,2013-09-08 10:41:00,
2013-09-08 05:46:00,72.7,65.9,29.49,SW,225,0.0,0.7,79,0.00,,,0.00,WUHU216HW,2013-09-08 10:46:00,
2013-09-08 05:51:00,72.7,65.9,29.50,NNW,338,0.0,1.1,79,0.00,,,0.00,WUHU216HW,2013-09-08 10:51:00,
2013-09-08 05:56:00,72.7,66.2,29.50,NE,45,0.0,1.3,80,0.00,,,0.00,WUHU216HW,2013-09-08 10:56:00,
2013-09-08 06:01:00,72.9,66.1,29.50,WSW,248,0.7,1.3,79,0.00,,,0.00,WUHU216HW,2013-09-08 11:01:00,
2013-09-08 06:06:00,73.1,66.3,29.50,WSW,248,0.0,1.1,79,0.00,,,0.00,WUHU216HW,2013-09-08 11:06:00,
2013-09-08 06:11:00,73.1,66.3,29.50,WNW,293,1.6,1.6,79,0.00,,,0.00,WUHU216HW,2013-09-08 11:11:00,
2013-09-08 06:16:00,72.9,66.1,29.50,West,270,1.8,1.8,79,0.00,,,0.00,WUHU216HW,2013-09-08 11:16:00,
2013-09-08 06:21:00,72.7,65.9,29.50,WNW,293,0.0,2.2,79,0.00,,,0.00,WUHU216HW,2013-09-08 11:21:00,
2013-09-08 06:26:00,72.7,65.9,29.50,WSW,248,1.1,2.2,79,0.00,,,0.00,WUHU216HW,2013-09-08 11:26:00,
2013-09-08 06:31:00,72.7,65.9,29.50,WSW,248,0.0,1.1,79,0.00,,,0.00,WUHU216HW,2013-09-08 11:31:00,
2013-09-08 06:36:00,72.7,66.6,29.50,NE,45,1.1,1.8,81,0.00,,,0.00,WUHU216HW,2013-09-08 11:36:00,
2013-09-08 06:41:00,72.5,66.1,29.50,NE,45,0.0,1.8,80,0.00,,,0.00,WUHU216HW,2013-09-08 11:41:00,
2013-09-08 06:46:00,72.5,66.1,29.50,ESE,113,0.0,0.4,80,0.00,,,0.00,WUHU216HW,2013-09-08 11:46:00,
2013-09-08 06:51:00,72.7,66.6,29.50,ENE,68,0.0,0.0,81,0.00,,,0.00,WUHU216HW,2013-09-08 11:51:00,
2013-09-08 06:56:00,72.7,66.6,29.51,ENE,68,0.7,0.9,81,0.00,,,0.00,WUHU216HW,2013-09-08 11:56:00,
2013-09-08 07:01:00,72.7,66.6,29.52,NE,45,0.0,1.3,81,0.00,,,0.00,WUHU216HW,2013-09-08 12:01:00,
2013-09-08 07:06:00,72.7,66.6,29.52,SE,135,0.4,1.3,81,0.00,,,0.00,WUHU216HW,2013-09-08 12:06:00,
2013-09-08 07:11:00,72.7,66.6,29.52,ENE,68,0.7,1.8,81,0.00,,,0.00,WUHU216HW,2013-09-08 12:11:00,
2013-09-08 07:16:00,72.7,66.6,29.52,ESE,113,0.0,1.8,81,0.00,,,0.00,WUHU216HW,2013-09-08 12:16:00,
2013-09-08 07:21:00,72.7,66.6,29.52,SSE,158,1.8,1.8,81,0.00,,,0.00,WUHU216HW,2013-09-08 12:21:00,
2013-09-08 07:26:00,72.5,66.1,29.52,ENE,68,0.4,1.8,80,0.00,,,0.00,WUHU216HW,2013-09-08 12:26:00,
2013-09-08 07:31:00,72.5,66.1,29.52,SE,135,1.1,1.1,80,0.00,,,0.00,WUHU216HW,2013-09-08 12:31:00,
2013-09-08 07:36:00,72.4,65.9,29.52,SE,135,0.7,1.1,80,0.00,,,0.00,WUHU216HW,2013-09-08 12:36:00,
2013-09-08 07:41:00,72.9,67.2,29.52,ESE,113,0.9,1.3,82,0.00,,,0.00,WUHU216HW,2013-09-08 12:41:00,
2013-09-08 07:46:00,74.9,67.6,29.52,ESE,113,0.4,2.0,78,0.00,,,0.00,WUHU216HW,2013-09-08 12:46:00,
2013-09-08 07:51:00,74.7,67.1,29.52,East,90,1.3,2.0,77,0.00,,,0.00,WUHU216HW,2013-09-08 12:51:00,
2013-09-08 07:56:00,74.0,66.7,29.52,ENE,68,0.7,2.0,78,0.00,,,0.00,WUHU216HW,2013-09-08 12:56:00,
2013-09-08 08:01:00,73.6,66.8,29.52,SE,135,1.3,2.0,79,0.00,,,0.00,WUHU216HW,2013-09-08 13:01:00,
2013-09-08 08:06:00,73.4,67.0,29.53,ESE,113,2.2,2.2,80,0.00,,,0.00,WUHU216HW,2013-09-08 13:06:00,
2013-09-08 08:11:00,73.6,67.1,29.53,ESE,113,1.1,2.2,80,0.00,,,0.00,WUHU216HW,2013-09-08 13:11:00,
2013-09-08 08:16:00,73.6,67.1,29.53,ESE,113,1.1,1.1,80,0.00,,,0.00,WUHU216HW,2013-09-08 13:16:00,
2013-09-08 08:36:00,74.3,67.1,29.53,East,90,2.2,2.2,78,0.00,,,0.00,WUHU216HW,2013-09-08 13:36:00,
2013-09-08 08:41:00,74.5,67.2,29.53,East,90,1.3,3.8,78,0.00,,,0.00,WUHU216HW,2013-09-08 13:41:00,
2013-09-08 08:46:00,75.2,66.8,29.53,East,90,4.0,4.0,75,0.00,,,0.00,WUHU216HW,2013-09-08 13:46:00,
2013-09-08 08:51:00,75.4,67.0,29.54,East,90,2.0,4.0,75,0.00,,,0.00,WUHU216HW,2013-09-08 13:51:00,
2013-09-08 08:56:00,75.1,66.6,29.54,ENE,68,2.0,4.0,75,0.00,,,0.00,WUHU216HW,2013-09-08 13:56:00,
2013-09-08 09:01:00,75.2,66.8,29.53,North,0,2.7,4.0,75,0.00,,,0.00,WUHU216HW,2013-09-08 14:01:00,
2013-09-08 09:06:00,75.4,67.0,29.54,SSE,158,1.8,3.8,75,0.00,,,0.00,WUHU216HW,2013-09-08 14:06:00,
2013-09-08 09:11:00,75.8,67.3,29.54,SE,135,1.6,3.4,75,0.00,,,0.00,WUHU216HW,2013-09-08 14:11:00,
2013-09-08 09:16:00,76.1,67.2,29.54,NNW,338,1.8,4.0,74,0.00,,,0.00,WUHU216HW,2013-09-08 14:16:00,
2013-09-08 09:21:00,77.4,67.7,29.54,NNE,23,2.5,4.0,72,0.00,,,0.00,WUHU216HW,2013-09-08 14:21:00,
2013-09-08 09:26:00,78.1,68.0,29.54,SE,135,1.8,3.4,71,0.00,,,0.00,WUHU216HW,2013-09-08 14:26:00,
2013-09-08 09:31:00,78.1,68.0,29.55,SSE,158,1.6,3.4,71,0.00,,,0.00,WUHU216HW,2013-09-08 14:31:00,
2013-09-08 09:36:00,78.1,68.0,29.55,SSE,158,1.6,1.6,71,0.00,,,0.00,WUHU216HW,2013-09-08 14:36:00,
2013-09-08 09:57:00,76.7,67.8,29.54,NNE,23,0.9,0.9,74,0.00,,,0.00,WUHU216HW,2013-09-08 14:57:00,
2013-09-08 10:02:00,77.2,67.9,29.54,ESE,113,1.8,3.1,73,0.00,,,0.00,WUHU216HW,2013-09-08 15:02:00,
2013-09-08 10:07:00,78.1,68.0,29.54,ENE,68,0.9,3.1,71,0.00,,,0.00,WUHU216HW,2013-09-08 15:07:00,
2013-09-08 10:12:00,78.8,68.2,29.54,SE,135,1.1,1.8,70,0.00,,,0.00,WUHU216HW,2013-09-08 15:12:00,
2013-09-08 10:17:00,78.5,68.3,29.54,SSE,158,3.1,3.1,71,0.00,,,0.00,WUHU216HW,2013-09-08 15:17:00,
2013-09-08 10:22:00,77.9,67.8,29.54,ENE,68,0.4,3.1,71,0.00,,,0.00,WUHU216HW,2013-09-08 15:22:00,
2013-09-08 10:27:00,79.0,68.4,29.54,SSE,158,2.5,2.5,70,0.00,,,0.00,WUHU216HW,2013-09-08 15:27:00,
2013-09-08 10:32:00,81.5,68.6,29.54,NE,45,0.7,2.7,65,0.00,,,0.00,WUHU216HW,2013-09-08 15:32:00,
2013-09-08 10:37:00,81.9,69.4,29.54,South,180,3.4,3.4,66,0.00,,,0.00,WUHU216HW,2013-09-08 15:37:00,
2013-09-08 10:42:00,81.7,69.2,29.54,East,90,2.5,3.4,66,0.00,,,0.00,WUHU216HW,2013-09-08 15:42:00,
2013-09-08 10:47:00,81.0,68.6,29.54,ENE,68,1.8,2.7,66,0.00,,,0.00,WUHU216HW,2013-09-08 15:47:00,
2013-09-08 10:52:00,82.1,69.0,29.54,ESE,113,1.3,2.0,65,0.00,,,0.00,WUHU216HW,2013-09-08 15:52:00,
2013-09-08 10:57:00,83.0,68.6,29.54,SE,135,1.6,2.0,62,0.00,,,0.00,WUHU216HW,2013-09-08 15:57:00,
2013-09-08 11:02:00,83.0,69.0,29.54,ESE,113,2.2,2.5,63,0.00,,,0.00,WUHU216HW,2013-09-08 16:02:00,
2013-09-08 11:07:00,81.7,68.8,29.53,North,0,2.0,2.5,65,0.00,,,0.00,WUHU216HW,2013-09-08 16:07:00,
2013-09-08 11:12:00,81.4,68.9,29.53,East,90,1.1,2.5,66,0.00,,,0.00,WUHU216HW,2013-09-08 16:12:00,
2013-09-08 11:17:00,82.1,68.6,29.53,ESE,113,1.1,2.5,64,0.00,,,0.00,WUHU216HW,2013-09-08 16:17:00,
2013-09-08 11:22:00,82.8,69.8,29.53,ENE,68,1.8,2.5,65,0.00,,,0.00,WUHU216HW,2013-09-08 16:22:00,
2013-09-08 11:27:00,82.1,68.6,29.53,SE,135,2.7,3.1,64,0.00,,,0.00,WUHU216HW,2013-09-08 16:27:00,
2013-09-08 11:32:00,81.7,69.2,29.53,SSE,158,2.7,4.0,66,0.00,,,0.00,WUHU216HW,2013-09-08 16:32:00,
2013-09-08 11:36:00,83.7,70.7,29.53,SE,135,0.7,4.0,65,0.00,,,0.00,WUHU216HW,2013-09-08 16:36:00,
2013-09-08 11:41:00,85.0,70.5,29.53,East,90,1.8,2.5,62,0.00,,,0.00,WUHU216HW,2013-09-08 16:41:00,
2013-09-08 11:46:00,83.9,69.9,29.53,ENE,68,1.3,2.5,63,0.00,,,0.00,WUHU216HW,2013-09-08 16:46:00,
2013-09-08 11:51:00,83.3,69.8,29.53,NNE,23,1.8,2.0,64,0.00,,,0.00,WUHU216HW,2013-09-08 16:51:00,
2013-09-08 11:56:00,84.2,70.3,29.53,NE,45,1.3,2.9,63,0.00,,,0.00,WUHU216HW,2013-09-08 16:56:00,
2013-09-08 12:01:00,84.6,70.7,29.53,SSE,158,1.8,2.9,63,0.00,,,0.00,WUHU216HW,2013-09-08 17:01:00,
2013-09-08 12:06:00,83.9,69.9,29.53,East,90,1.1,2.9,63,0.00,,,0.00,WUHU216HW,2013-09-08 17:06:00,
2013-09-08 12:11:00,83.7,70.2,29.53,SE,135,3.4,3.4,64,0.00,,,0.00,WUHU216HW,2013-09-08 17:11:00,
2013-09-08 12:16:00,84.8,69.8,29.53,SE,135,2.5,3.4,61,0.00,,,0.00,WUHU216HW,2013-09-08 17:16:00,
2013-09-08 12:21:00,85.0,69.6,29.53,SSW,203,1.1,2.7,60,0.00,,,0.00,WUHU216HW,2013-09-08 17:21:00,
2013-09-08 12:26:00,84.6,69.8,29.53,ENE,68,1.8,2.7,61,0.00,,,0.00,WUHU216HW,2013-09-08 17:26:00,
2013-09-08 12:31:00,84.2,69.8,29.53,East,90,1.8,2.7,62,0.00,,,0.00,WUHU216HW,2013-09-08 17:31:00,
2013-09-08 12:36:00,84.4,70.0,29.52,ENE,68,1.8,2.5,62,0.00,,,0.00,WUHU216HW,2013-09-08 17:36:00,
2013-09-08 12:41:00,85.0,70.5,29.52,ESE,113,2.2,3.4,62,0.00,,,0.00,WUHU216HW,2013-09-08 17:41:00,
2013-09-08 12:46:00,85.3,70.8,29.52,SSE,158,1.6,3.4,62,0.00,,,0.00,WUHU216HW,2013-09-08 17:46:00,
2013-09-08 12:51:00,85.1,70.7,29.52,ESE,113,2.5,3.6,62,0.00,,,0.00,WUHU216HW,2013-09-08 17:51:00,
2013-09-08 12:56:00,85.7,70.2,29.52,SSE,158,2.9,3.6,60,0.00,,,0.00,WUHU216HW,2013-09-08 17:56:00,
2013-09-08 13:01:00,86.4,70.4,29.52,SE,135,3.4,3.4,59,0.00,,,0.00,WUHU216HW,2013-09-08 18:01:00,
2013-09-08 13:06:00,86.8,70.2,29.51,SE,135,1.3,4.0,58,0.00,,,0.00,WUHU216HW,2013-09-08 18:06:00,
2013-09-08 13:11:00,87.3,70.2,29.51,South,180,2.5,4.0,57,0.00,,,0.00,WUHU216HW,2013-09-08 18:11:00,
2013-09-08 13:16:00,87.3,70.7,29.51,East,90,1.3,2.5,58,0.00,,,0.00,WUHU216HW,2013-09-08 18:16:00,
2013-09-08 13:21:00,87.3,70.7,29.51,East,90,1.3,2.5,58,0.00,,,0.00,WUHU216HW,2013-09-08 18:21:00,
2013-09-08 13:43:00,88.7,69.4,29.50,East,90,1.3,1.3,53,0.00,,,0.00,WUHU216HW,2013-09-08 18:43:00,
2013-09-08 13:48:00,89.6,70.2,29.50,East,90,1.8,2.5,53,0.00,,,0.00,WUHU216HW,2013-09-08 18:48:00,
2013-09-08 13:52:00,90.9,69.8,29.50,East,90,2.0,2.7,50,0.00,,,0.00,WUHU216HW,2013-09-08 18:52:00,
2013-09-08 13:58:00,90.9,69.8,29.50,ESE,113,2.5,4.7,50,0.00,,,0.00,WUHU216HW,2013-09-08 18:58:00,
2013-09-08 14:02:00,89.8,69.3,29.49,SW,225,2.5,4.7,51,0.00,,,0.00,WUHU216HW,2013-09-08 19:02:00,
2013-09-08 14:07:00,90.4,69.2,29.49,ESE,113,2.5,3.6,50,0.00,,,0.00,WUHU216HW,2013-09-08 19:07:00,
2013-09-08 14:12:00,90.5,69.4,29.49,SSE,158,3.1,3.6,50,0.00,,,0.00,WUHU216HW,2013-09-08 19:12:00,
2013-09-08 14:17:00,91.6,69.8,29.49,SSE,158,1.8,3.1,49,0.00,,,0.00,WUHU216HW,2013-09-08 19:17:00,
2013-09-08 14:22:00,91.8,69.2,29.49,South,180,1.8,3.1,48,0.00,,,0.00,WUHU216HW,2013-09-08 19:22:00,
2013-09-08 14:27:00,92.5,69.8,29.49,ENE,68,2.7,5.4,48,0.00,,,0.00,WUHU216HW,2013-09-08 19:27:00,
2013-09-08 14:32:00,92.7,70.0,29.49,East,90,2.7,5.4,48,0.00,,,0.00,WUHU216HW,2013-09-08 19:32:00,
2013-09-08 14:37:00,92.7,70.0,29.49,East,90,2.7,2.7,48,0.00,,,0.00,WUHU216HW,2013-09-08 19:37:00,
2013-09-08 14:58:00,92.2,69.6,29.48,ESE,113,1.1,1.1,48,0.00,,,0.00,WUHU216HW,2013-09-08 19:58:00,
2013-09-08 15:03:00,92.9,69.6,29.48,SE,135,1.1,2.9,47,0.00,,,0.00,WUHU216HW,2013-09-08 20:03:00,
2013-09-08 15:08:00,93.8,69.8,29.48,ESE,113,2.0,2.9,46,0.00,,,0.00,WUHU216HW,2013-09-08 20:08:00,
2013-09-08 15:13:00,93.2,69.2,29.48,South,180,2.5,2.5,46,0.00,,,0.00,WUHU216HW,2013-09-08 20:13:00,
2013-09-08 15:18:00,92.9,69.6,29.47,East,90,2.0,2.7,47,0.00,,,0.00,WUHU216HW,2013-09-08 20:18:00,
2013-09-08 15:23:00,93.1,69.0,29.47,SE,135,1.6,3.1,46,0.00,,,0.00,WUHU216HW,2013-09-08 20:23:00,
2013-09-08 15:28:00,93.4,68.8,29.47,SSE,158,2.2,3.1,45,0.00,,,0.00,WUHU216HW,2013-09-08 20:28:00,
2013-09-08 15:33:00,93.8,69.1,29.47,North,0,1.1,4.3,45,0.00,,,0.00,WUHU216HW,2013-09-08 20:33:00,
2013-09-08 15:38:00,93.6,69.0,29.47,ESE,113,1.8,4.3,45,0.00,,,0.00,WUHU216HW,2013-09-08 20:38:00,
2013-09-08 15:43:00,93.6,69.6,29.47,East,90,2.2,4.7,46,0.00,,,0.00,WUHU216HW,2013-09-08 20:43:00,
2013-09-08 15:48:00,94.1,68.8,29.47,SE,135,3.4,4.7,44,0.00,,,0.00,WUHU216HW,2013-09-08 20:48:00,
2013-09-08 15:53:00,94.0,68.0,29.47,ESE,113,4.0,4.0,43,0.00,,,0.00,WUHU216HW,2013-09-08 20:53:00,
2013-09-08 15:58:00,92.5,68.6,29.46,SE,135,5.4,5.4,46,0.00,,,0.00,WUHU216HW,2013-09-08 20:58:00,
2013-09-08 16:03:00,92.2,69.0,29.46,ENE,68,2.0,5.4,47,0.00,,,0.00,WUHU216HW,2013-09-08 21:03:00,
2013-09-08 16:08:00,91.8,68.6,29.46,ENE,68,4.7,4.7,47,0.00,,,0.00,WUHU216HW,2013-09-08 21:08:00,
2013-09-08 16:13:00,91.1,68.6,29.46,SE,135,2.0,4.7,48,0.00,,,0.00,WUHU216HW,2013-09-08 21:13:00,
2013-09-08 16:18:00,90.7,69.0,29.46,SSE,158,4.7,4.7,49,0.00,,,0.00,WUHU216HW,2013-09-08 21:18:00,
2013-09-08 16:23:00,90.7,69.0,29.46,SE,135,4.3,4.7,49,0.00,,,0.00,WUHU216HW,2013-09-08 21:23:00,
2013-09-08 16:28:00,92.5,69.2,29.46,SE,135,1.8,4.7,47,0.00,,,0.00,WUHU216HW,2013-09-08 21:28:00,
2013-09-08 16:33:00,92.5,68.6,29.46,East,90,2.5,4.0,46,0.00,,,0.00,WUHU216HW,2013-09-08 21:33:00,
2013-09-08 16:38:00,92.7,69.4,29.46,SE,135,1.8,5.8,47,0.00,,,0.00,WUHU216HW,2013-09-08 21:38:00,
2013-09-08 16:43:00,91.8,68.6,29.46,ENE,68,2.5,5.8,47,0.00,,,0.00,WUHU216HW,2013-09-08 21:43:00,
2013-09-08 16:48:00,91.4,69.0,29.45,SSE,158,3.4,5.6,48,0.00,,,0.00,WUHU216HW,2013-09-08 21:48:00,
2013-09-08 16:53:00,91.3,69.4,29.46,East,90,2.2,3.8,49,0.00,,,0.00,WUHU216HW,2013-09-08 21:53:00,
2013-09-08 16:58:00,91.4,69.6,29.46,SSE,158,3.6,3.8,49,0.00,,,0.00,WUHU216HW,2013-09-08 21:58:00,
2013-09-08 17:02:00,92.3,69.0,29.46,SE,135,3.8,3.8,47,0.00,,,0.00,WUHU216HW,2013-09-08 22:02:00,
2013-09-08 17:07:00,93.4,69.4,29.46,SE,135,3.1,3.8,46,0.00,,,0.00,WUHU216HW,2013-09-08 22:07:00,
2013-09-08 17:12:00,93.6,69.6,29.46,South,180,2.9,3.4,46,0.00,,,0.00,WUHU216HW,2013-09-08 22:12:00,
2013-09-08 17:17:00,93.6,69.6,29.46,SE,135,0.2,3.8,46,0.00,,,0.00,WUHU216HW,2013-09-08 22:17:00,
2013-09-08 17:22:00,94.1,70.1,29.45,SE,135,2.0,3.8,46,0.00,,,0.00,WUHU216HW,2013-09-08 22:22:00,
2013-09-08 17:27:00,92.9,69.0,29.46,SE,135,1.1,4.0,46,0.00,,,0.00,WUHU216HW,2013-09-08 22:27:00,
2013-09-08 17:32:00,91.8,69.2,29.45,SSE,158,1.3,4.0,48,0.00,,,0.00,WUHU216HW,2013-09-08 22:32:00,
2013-09-08 17:37:00,92.5,69.8,29.45,SE,135,1.6,3.1,48,0.00,,,0.00,WUHU216HW,2013-09-08 22:37:00,
2013-09-08 17:42:00,93.1,69.0,29.45,SE,135,1.6,4.3,46,0.00,,,0.00,WUHU216HW,2013-09-08 22:42:00,
2013-09-08 17:47:00,92.9,69.6,29.46,SE,135,2.9,4.3,47,0.00,,,0.00,WUHU216HW,2013-09-08 22:47:00,
2013-09-08 17:52:00,92.7,69.4,29.46,ESE,113,1.1,2.9,47,0.00,,,0.00,WUHU216HW,2013-09-08 22:52:00,
2013-09-08 17:57:00,91.8,69.2,29.46,ESE,113,1.8,4.0,48,0.00,,,0.00,WUHU216HW,2013-09-08 22:57:00,
2013-09-08 18:02:00,90.4,69.2,29.46,SSE,158,1.1,4.0,50,0.00,,,0.00,WUHU216HW,2013-09-08 23:02:00,
2013-09-08 18:07:00,90.7,69.0,29.46,WSW,248,0.4,2.0,49,0.00,,,0.00,WUHU216HW,2013-09-08 23:07:00,
2013-09-08 18:12:00,91.1,69.2,29.46,SSW,203,1.8,1.8,49,0.00,,,0.00,WUHU216HW,2013-09-08 23:12:00,
2013-09-08 18:17:00,91.1,69.2,29.46,SE,135,0.4,2.2,49,0.00,,,0.00,WUHU216HW,2013-09-08 23:17:00,
2013-09-08 18:22:00,91.1,69.2,29.46,South,180,2.9,2.9,49,0.00,,,0.00,WUHU216HW,2013-09-08 23:22:00,
2013-09-08 18:27:00,91.4,69.6,29.46,South,180,2.5,2.9,49,0.00,,,0.00,WUHU216HW,2013-09-08 23:27:00,
2013-09-08 18:32:00,90.9,69.0,29.46,SSE,158,0.9,2.5,49,0.00,,,0.00,WUHU216HW,2013-09-08 23:32:00,
2013-09-08 18:37:00,90.4,69.8,29.46,SE,135,0.9,1.8,51,0.00,,,0.00,WUHU216HW,2013-09-08 23:37:00,
2013-09-08 18:42:00,90.2,69.6,29.46,South,180,1.1,3.1,51,0.00,,,0.00,WUHU216HW,2013-09-08 23:42:00,
2013-09-08 18:47:00,90.4,69.8,29.46,SE,135,1.8,3.1,51,0.00,,,0.00,WUHU216HW,2013-09-08 23:47:00,
2013-09-08 18:52:00,90.4,69.8,29.46,SSE,158,0.0,2.2,51,0.00,,,0.00,WUHU216HW,2013-09-08 23:52:00,
2013-09-08 18:57:00,90.0,69.5,29.47,SSE,158,0.4,2.0,51,0.00,,,0.00,WUHU216HW,2013-09-08 23:57:00,
2013-09-08 19:02:00,89.3,69.3,29.47,SW,225,0.7,2.0,52,0.00,,,0.00,WUHU216HW,2013-09-09 00:02:00,
2013-09-08 19:07:00,89.3,69.8,29.47,WSW,248,0.4,1.1,53,0.00,,,0.00,WUHU216HW,2013-09-09 00:07:00,
2013-09-08 19:12:00,89.5,69.5,29.47,SSE,158,2.2,2.2,52,0.00,,,0.00,WUHU216HW,2013-09-09 00:12:00,
2013-09-08 19:17:00,89.1,69.8,29.47,South,180,0.9,2.2,53,0.00,,,0.00,WUHU216HW,2013-09-09 00:17:00,
2013-09-08 19:22:00,88.4,69.0,29.47,SE,135,0.4,1.1,53,0.00,,,0.00,WUHU216HW,2013-09-09 00:22:00,
2013-09-08 19:27:00,87.5,69.8,29.47,SSE,158,0.0,0.9,56,0.00,,,0.00,WUHU216HW,2013-09-09 00:27:00,
2013-09-08 19:32:00,87.5,69.8,29.47,SSE,158,0.0,0.7,56,0.00,,,0.00,WUHU216HW,2013-09-09 00:32:00,
2013-09-08 19:37:00,87.7,70.0,29.48,ESE,113,0.0,0.0,56,0.00,,,0.00,WUHU216HW,2013-09-09 00:37:00,
2013-09-08 19:42:00,87.7,70.0,29.47,ESE,113,0.0,0.0,56,0.00,,,0.00,WUHU216HW,2013-09-09 00:42:00,
2013-09-08 19:47:00,87.7,70.0,29.47,ESE,113,0.0,0.0,56,0.00,,,0.00,WUHU216HW,2013-09-09 00:47:00,
2013-09-08 19:59:00,86.6,70.0,29.47,South,180,0.0,0.0,58,0.00,,,0.00,WUHU216HW,2013-09-09 00:59:00,
2013-09-08 20:04:00,86.6,70.0,29.47,South,180,0.0,0.0,58,0.00,,,0.00,WUHU216HW,2013-09-09 01:04:00,
2013-09-08 20:09:00,86.2,69.2,29.48,South,180,0.0,0.0,57,0.00,,,0.00,WUHU216HW,2013-09-09 01:09:00,
2013-09-08 20:14:00,85.3,68.9,29.48,SSE,158,0.0,0.0,58,0.00,,,0.00,WUHU216HW,2013-09-09 01:14:00,
2013-09-08 20:19:00,85.3,70.4,29.48,SSE,158,0.0,0.0,61,0.00,,,0.00,WUHU216HW,2013-09-09 01:19:00,
2013-09-08 20:24:00,85.3,70.4,29.48,SE,135,0.7,0.7,61,0.00,,,0.00,WUHU216HW,2013-09-09 01:24:00,
2013-09-08 20:29:00,84.8,69.4,29.48,SE,135,0.0,1.1,60,0.00,,,0.00,WUHU216HW,2013-09-09 01:29:00,
2013-09-08 20:34:00,84.1,68.8,29.48,SE,135,0.0,1.1,60,0.00,,,0.00,WUHU216HW,2013-09-09 01:34:00,
2013-09-08 20:39:00,83.5,70.0,29.48,ESE,113,0.7,1.1,64,0.00,,,0.00,WUHU216HW,2013-09-09 01:39:00,
2013-09-08 20:44:00,83.7,70.2,29.48,SE,135,0.4,1.3,64,0.00,,,0.00,WUHU216HW,2013-09-09 01:44:00,
2013-09-08 20:49:00,83.3,68.9,29.48,SSE,158,0.9,1.3,62,0.00,,,0.00,WUHU216HW,2013-09-09 01:49:00,
2013-09-08 20:54:00,82.4,68.0,29.48,SE,135,0.0,1.3,62,0.00,,,0.00,WUHU216HW,2013-09-09 01:54:00,
2013-09-08 20:59:00,82.1,69.5,29.48,SE,135,0.4,1.1,66,0.00,,,0.00,WUHU216HW,2013-09-09 01:59:00,
2013-09-08 21:04:00,82.8,70.2,29.48,SE,135,0.4,1.1,66,0.00,,,0.00,WUHU216HW,2013-09-09 02:04:00,
2013-09-08 21:09:00,82.8,68.9,29.48,SE,135,0.0,0.9,63,0.00,,,0.00,WUHU216HW,2013-09-09 02:09:00,
2013-09-08 21:14:00,82.4,68.5,29.48,SE,135,0.7,0.7,63,0.00,,,0.00,WUHU216HW,2013-09-09 02:14:00,
2013-09-08 21:19:00,81.5,69.0,29.48,SE,135,0.4,0.7,66,0.00,,,0.00,WUHU216HW,2013-09-09 02:19:00,
2013-09-08 21:24:00,82.1,69.5,29.48,SE,135,0.0,0.7,66,0.00,,,0.00,WUHU216HW,2013-09-09 02:24:00,
2013-09-08 21:29:00,82.4,68.9,29.48,SE,135,0.4,0.4,64,0.00,,,0.00,WUHU216HW,2013-09-09 02:29:00,
2013-09-08 21:34:00,81.7,68.3,29.48,SE,135,0.7,0.7,64,0.00,,,0.00,WUHU216HW,2013-09-09 02:34:00,
2013-09-08 21:39:00,81.0,67.7,29.48,SE,135,0.0,0.7,64,0.00,,,0.00,WUHU216HW,2013-09-09 02:39:00,
2013-09-08 21:44:00,81.4,69.3,29.48,SE,135,0.0,0.0,67,0.00,,,0.00,WUHU216HW,2013-09-09 02:44:00,
2013-09-08 21:49:00,81.7,69.2,29.48,ESE,113,0.0,0.0,66,0.00,,,0.00,WUHU216HW,2013-09-09 02:49:00,
2013-09-08 21:54:00,81.5,68.6,29.48,ESE,113,0.0,0.0,65,0.00,,,0.00,WUHU216HW,2013-09-09 02:54:00,
2013-09-08 21:59:00,81.0,68.1,29.48,ESE,113,0.0,0.0,65,0.00,,,0.00,WUHU216HW,2013-09-09 02:59:00,
2013-09-08 22:04:00,80.5,67.6,29.48,ESE,113,0.0,0.0,65,0.00,,,0.00,WUHU216HW,2013-09-09 03:04:00,
2013-09-08 22:09:00,80.3,69.2,29.48,East,90,0.0,0.0,69,0.00,,,0.00,WUHU216HW,2013-09-09 03:09:00,
2013-09-08 22:14:00,80.6,69.6,29.48,ESE,113,0.0,0.0,69,0.00,,,0.00,WUHU216HW,2013-09-09 03:14:00,
2013-09-08 22:19:00,80.8,69.3,29.48,ESE,113,0.0,0.0,68,0.00,,,0.00,WUHU216HW,2013-09-09 03:19:00,
2013-09-08 22:24:00,80.8,69.3,29.48,ESE,113,0.0,0.0,68,0.00,,,0.00,WUHU216HW,2013-09-09 03:24:00,
2013-09-08 22:45:00,77.8,68.8,29.48,SE,135,0.0,0.0,74,0.00,,,0.00,WUHU216HW,2013-09-09 03:45:00,
2013-09-08 22:50:00,78.5,69.0,29.48,East,90,0.0,0.7,73,0.00,,,0.00,WUHU216HW,2013-09-09 03:50:00,
2013-09-08 22:55:00,78.8,68.6,29.49,ESE,113,0.0,0.7,71,0.00,,,0.00,WUHU216HW,2013-09-09 03:55:00,
2013-09-08 23:00:00,78.3,67.8,29.49,SE,135,0.2,0.9,70,0.00,,,0.00,WUHU216HW,2013-09-09 04:00:00,
2013-09-08 23:01:00,78.1,67.6,29.48,SE,135,0.4,0.9,70,0.00,,,0.00,WUHU216HW,2013-09-09 04:01:00,
2013-09-08 23:02:00,78.1,67.6,29.49,SE,135,1.1,1.1,70,0.00,,,0.00,WUHU216HW,2013-09-09 04:02:00,
2013-09-08 23:07:00,77.2,67.1,29.49,SE,135,0.9,1.1,71,0.00,,,0.00,WUHU216HW,2013-09-09 04:07:00,
2013-09-08 23:12:00,76.7,67.0,29.49,ESE,113,1.1,1.1,72,0.00,,,0.00,WUHU216HW,2013-09-09 04:12:00,
2013-09-08 23:17:00,76.1,66.5,29.49,SE,135,0.4,1.1,72,0.00,,,0.00,WUHU216HW,2013-09-09 04:17:00,
2013-09-08 23:22:00,76.0,67.9,29.49,SE,135,0.0,1.1,76,0.00,,,0.00,WUHU216HW,2013-09-09 04:22:00,
2013-09-08 23:27:00,77.4,68.5,29.49,SE,135,0.4,1.1,74,0.00,,,0.00,WUHU216HW,2013-09-09 04:27:00,
2013-09-08 23:32:00,78.1,68.0,29.49,SE,135,0.9,1.1,71,0.00,,,0.00,WUHU216HW,2013-09-09 04:32:00,
2013-09-08 23:37:00,77.4,67.3,29.49,SE,135,0.9,1.6,71,0.00,,,0.00,WUHU216HW,2013-09-09 04:37:00,
2013-09-08 23:42:00,76.5,66.9,29.49,ESE,113,0.4,1.6,72,0.00,,,0.00,WUHU216HW,2013-09-09 04:42:00,
2013-09-08 23:47:00,76.5,66.9,29.49,ESE,113,0.4,1.1,72,0.00,,,0.00,WUHU216HW,2013-09-09 04:47:00,
2013-09-08 23:59:00,74.5,66.1,29.49,ESE,113,0.0,0.0,75,0.00,,,0.00,WUHU216HW,2013-09-09 04:59:00,